Погода в Вашингтоне

США     38°53′58″N   77°02′11″W
В апреле 2022 года жителям России запретили посещать сайт meteo.paraplan.net по решению Генеральной прокуратуры. Аудитория сайта уменьшилась в 10 раз. Владельцы сайта не видят смысла в поддержке погодного сервера в таких условиях. Сайт будет закрыт в октябре.
темп.,
°C
ветер,
м/с
пор.,
м/с
влажн.,
%
обл.,
%
осадки,
мм/ч
давл.,
гПа
погр.,
м
4 октября, вт
вт423:00+10ссв41272100 0.0 1022919
02:00+10с5126596 0.1 1020922
05:00+10с61265100 0.0 1019854
08:00+10с51272100 0.1 1018794
11:00+9с51286100 0.3 1018724
14:00+9ссз51192100 1.2 1016739
17:00+9ссз61292100 0.6 1015702
20:00+9ссз51294100 1.6 1016610
5 октября, ср
ср523:00+9ссз51295100 0.9 1015511
02:00+10ссз51293100 1.3 1014554
05:00+10сз51194100 0.2 1014524
08:00+11ссз41192100 0.3 1014498
11:00+12ссз41190100 0.1 1015557
14:00+14ссз41079100 0.1 1015560
17:00+15ссз497471 0.0 1016518
20:00+13сз267868 0.0 1017190
6 октября, чт
чт623:00+12ссз23741 0.0 101752
02:00+12сз11722 0.0 101713
05:00+11сз227216 0.0 101734
08:00+11зсз127186 0.0 101761
11:00+18зсз2348100 0.0 1017425
14:00+22з234038 0.0 10161013
17:00+22зсз2345100 0.0 10151042
20:00+18юз015843 0.0 101611
7 октября, пт
пт723:00+16з23615 0.0 101655
02:00+15зсз12650 0.0 101621
05:00+14зсз23635 0.0 101552
08:00+14зюз24625 0.0 1015100
11:00+21зюз35475 0.0 1015480
14:00+24зсз46405 0.0 10141595
17:00+18ссз6106243 0.1 1016798
20:00+13сз5126351 0.1 1020814
8 октября, сб
сб823:00+11ссз511570 0.0 1022919
02:00+8ссз39595 0.0 1023566
05:00+7сз27625 0.0 1024306
08:00+7зсз24620 0.0 1025187
11:00+12сз47415 0.0 10261454
14:00+15сз46355 0.0 10231694
17:00+16зсз36342 0.0 10221720
20:00+12сз12480 0.0 102338